Location: Poughquag
(41.6090°N, 73.6820°W)
Time: 03:09:59
(UTC-04:00)

Courier 1B Rocket - Visible Passes

Search period start: 15 October 2019 00:00
Search period end: 25 October 2019 00:00
Orbit: 920 x 1202 km, 28.2° (Epoch: 14 October)

Date Brightness Start Highest point End Pass type
(mag) Time Alt. Az. Time Alt. Az. Time Alt. Az.
15 Oct 7.0 05:50:37 10° SSW 05:54:33 17° SSE 05:58:36 10° ESE visible
16 Oct 7.1 04:51:26 11° S 04:53:54 13° SSE 04:56:39 10° SE visible
17 Oct 6.8 05:41:05 10° SSW 05:45:32 20° SSE 05:50:06 10° ESE visible
18 Oct 6.8 04:43:43 16° S 04:44:51 17° SSE 04:48:41 10° SE visible
18 Oct 6.6 06:32:20 10° SW 06:37:16 24° S 06:42:23 10° SE visible
19 Oct 7.4 03:46:37 10° SE 03:46:37 10° SE 03:46:52 10° SE visible
19 Oct 6.5 05:32:59 14° SSW 05:36:32 23° S 05:41:21 10° ESE visible
20 Oct 6.6 04:35:51 20° SSE 04:35:51 20° SSE 04:40:15 10° ESE visible
20 Oct 6.5 06:23:27 10° SW 06:28:19 24° S 06:33:19 10° SE visible
21 Oct 7.4 03:38:43 11° SE 03:38:43 11° SE 03:38:58 10° SE visible
21 Oct 6.4 05:25:05 18° SSW 05:27:35 24° S 05:32:29 10° SE visible
22 Oct 6.5 04:27:55 21° SSE 04:27:55 21° SSE 04:31:34 10° SE visible
22 Oct 6.5 06:14:43 10° SW 06:19:21 22° S 06:24:05 10° SE visible
23 Oct 6.3 05:17:08 21° SSW 05:18:38 23° S 05:23:28 10° SE visible
24 Oct 6.7 04:19:58 20° SSE 04:19:58 20° SSE 04:22:45 10° SE visible
24 Oct 6.6 06:06:20 11° SW 06:10:23 19° SSW 06:14:40 10° SSE visible
